DW4168 Weather Reports


time (UTC)temp
C
wind
direction
speed
KPH
gust
KPH
rain 1hr
cm
rain 24hr
cm
rain mn
cm
humidity
%
barometer
mb
20260508090006 3 236 0.0 4.8 0.00 0.25 0.20 91 1003.1
20260508084606 2 234 0.0 3.2 0.00 0.25 0.20 91 1003.0
20260508083045 2 234 0.0 6.4 0.00 0.25 0.20 91 1003.1
20260508081602 2 244 3.2 6.4 0.00 0.25 0.20 90 1003.0
20260508080027 2 244 0.0 6.4 0.00 0.25 0.20 90 1002.9
20260508074527 2 285 1.6 6.4 0.00 0.25 0.20 90 1002.9
20260508073010 3 263 1.6 6.4 0.00 0.30 0.20 89 1002.9
20260508071514 2 270 0.0 6.4 0.00 0.30 0.20 89 1002.9
20260508070058 2 277 3.2 6.4 0.00 0.30 0.20 89 1002.8
20260508064550 2 240 1.6 6.4 0.00 0.30 0.20 90 1002.8
20260508063033 1 239 4.8 8.0 0.00 0.51 0.20 90 1002.8
20260508061531 2 215 4.8 8.0 0.00 0.51 0.20 89 1003.0
20260508060013 2 248 1.6 6.4 0.00 0.51 0.20 89 1003.1
20260508054516 2 248 1.6 9.7 0.00 0.51 0.20 89 1003.2
20260508053059 2 257 3.2 6.4 0.00 0.66 0.20 89 1003.3
20260508051554 2 222 4.8 8.0 0.00 0.66 0.20 90 1003.4
20260508050035 2 211 3.2 6.4 0.00 0.66 0.20 89 1003.4
20260508044541 2 211 0.0 0.0 0.00 0.66 0.20 89 1003.5
20260508043018 2 211 1.6 6.4 0.00 0.97 0.20 89 1003.4
20260508041515 2 209 3.2 8.0 0.00 0.97 0.20 90 1003.5
20260508040101 2 209 0.0 1.6 0.00 0.97 0.20 89 1003.5
20260508034556 3 209 0.0 6.4 0.00 0.97 0.20 85 1003.5
20260508033035 3 208 3.2 9.7 0.00 1.09 0.20 87 1003.4
20260508031533 3 261 0.0 3.2 0.00 1.09 0.20 85 1003.5
20260508030016 5 261 0.0 9.7 0.00 1.09 0.20 84 1003.6
20260508024513 3 229 0.0 4.8 0.00 1.09 0.20 89 1003.7
20260508023056 3 231 1.6 4.8 0.00 1.22 0.20 90 1003.7
20260508021553 4 230 0.0 0.0 0.00 1.22 0.20 86 1003.8
20260508020037 5 230 1.6 8.0 0.00 1.22 0.20 88 1003.7
20260508014534 5 341 0.0 3.2 0.00 1.22 0.20 91 1003.7
20260508013015 5 341 0.0 0.0 0.00 1.30 0.20 91 1003.6
20260508011519 5 341 0.0 0.0 0.00 1.30 0.20 92 1003.7
20260508010055 5 341 0.0 0.0 0.00 1.30 0.20 90 1003.7
20260508004555 5 341 0.0 0.0 0.00 1.30 0.20 90 1003.6
20260508003032 6 341 0.0 1.6 0.00 1.40 0.20 90 1003.5
20260508001532 6 341 0.0 0.0 0.00 1.40 0.20 89 1003.2
20260508000012 7 341 0.0 1.6 0.00 1.40 0.20 86 1002.9
20260507234518 7 341 0.0 4.8 0.00 1.40 0.20 84 1002.8
20260507233058 8 341 1.6 9.7 0.00 1.55 0.20 82 1002.8
20260507231603 8 343 4.8 11.3 0.00 1.55 0.20 83 1002.7
20260507230100 8 307 4.8 9.7 0.00 1.55 0.20 85 1002.6
20260507224600 8 261 8.0 16.1 0.05 1.55 0.20 85 1002.6
20260507223059 8 230 11.3 17.7 0.10 1.80 0.20 86 1002.5
20260507221554 7 236 11.3 17.7 0.15 1.80 0.20 85 1002.4
20260507220054 7 229 17.7 24.1 0.15 1.80 0.20 85 1002.4
20260507214559 8 267 8.0 14.5 0.08 1.73 0.13 86 1002.6
20260507213036 8 55 3.2 11.3 0.03 1.85 0.08 84 1001.8
20260507211535 9 92 0.0 9.7 0.00 1.83 0.05 79 1001.7
20260507210017 10 184 0.0 3.2 0.00 1.83 0.05 76 1001.6
20260507204516 10 181 3.2 8.0 0.00 1.83 0.05 74 1001.4
20260507203004 11 154 3.2 8.0 0.05 2.01 0.05 73 1001.4
20260507201503 11 182 1.6 6.4 0.05 2.01 0.05 71 1001.4
20260507200001 10 177 1.6 8.0 0.05 2.01 0.05 80 1001.6
20260507194501 8 202 9.7 22.5 0.05 2.01 0.05 83 1001.8
20260507193102 8 227 29.0 45.1 0.00 2.11 0.00 77 1001.8
20260507191558 10 209 11.3 14.5 0.00 2.11 0.00 72 1001.6
20260507190057 10 196 8.0 19.3 0.00 2.11 0.00 70 1001.4
20260507184556 11 274 12.9 30.6 0.00 2.11 0.00 66 1001.5
20260507183043 11 227 8.0 16.1 0.00 2.16 0.00 64 1001.5
20260507181537 13 250 9.7 19.3 0.00 2.16 0.00 62 1001.6
20260507180022 12 337 8.0 14.5 0.00 2.16 0.00 64 1001.8
20260507174518 11 275 6.4 19.3 0.00 2.16 0.00 66 1001.9
20260507171609 12 280 1.6 9.7 0.00 2.18 0.00 65 1002.0
20260507170035 11 331 4.8 17.7 0.00 2.18 0.00 68 1002.0
20260507164536 11 332 1.6 9.7 0.00 2.18 0.00 70 1002.3
20260507163011 11 270 6.4 14.5 0.00 2.21 0.00 73 1002.4
20260507161508 11 226 11.3 17.7 0.00 2.21 0.00 73 1002.5
20260507160049 11 244 8.0 14.5 0.00 2.21 0.00 72 1002.9
20260507154545 10 288 6.4 11.3 0.00 2.21 0.00 79 1002.9
20260507153025 9 242 1.6 4.8 0.00 2.21 0.00 77 1003.0
20260507151536 9 307 1.6 11.3 0.00 2.21 0.00 79 1003.3
20260507150005 8 250 4.8 16.1 0.00 2.21 0.00 83 1003.2
20260507144559 8 289 6.4 11.3 0.00 2.21 0.00 85 1003.4
20260507143044 8 311 3.2 12.9 0.00 2.21 0.00 84 1003.6
20260507141536 7 306 6.4 14.5 0.00 2.21 0.00 87 1003.7
20260507140018 7 271 4.8 9.7 0.00 2.21 0.00 89 1003.7
20260507134526 7 302 6.4 9.7 0.00 2.21 0.00 88 1003.9
20260507133057 7 318 4.8 9.7 0.00 2.21 2.21 87 1003.8
20260507131600 7 325 4.8 11.3 0.00 2.21 2.21 88 1003.6
20260507130034 6 287 4.8 9.7 0.00 2.21 2.21 89 1003.9
20260507124534 6 320 6.4 11.3 0.00 2.21 2.21 90 1003.8
20260507123021 6 302 6.4 11.3 0.00 2.21 2.21 91 1003.7
20260507121519 6 331 4.8 12.9 0.00 2.21 2.21 92 1003.8
20260507120018 6 317 3.2 11.3 0.00 2.21 2.21 92 1003.8
20260507114525 6 344 8.0 12.9 0.00 2.21 2.21 92 1003.8
20260507113018 6 333 6.4 11.3 0.00 2.24 2.21 93 1003.5
20260507111521 5 292 4.8 11.3 0.00 2.24 2.21 94 1003.5
20260507110015 5 335 11.3 19.3 0.00 2.24 2.21 93 1003.2
20260507104513 5 315 6.4 16.1 0.00 2.24 2.21 94 1003.4
20260507103112 5 291 8.0 12.9 0.03 2.36 2.21 94 1003.6
20260507101558 5 316 6.4 14.5 0.03 2.36 2.21 94 1003.3
20260507100054 5 329 6.4 11.3 0.03 2.36 2.21 94 1003.1
20260507094534 5 329 6.4 11.3 0.05 2.36 2.21 94 1002.8
20260507093034 5 329 9.7 16.1 0.03 2.44 2.18 94 1002.8
20260507091515 5 331 8.0 12.9 0.03 2.44 2.18 94 1002.9